weather station
Area: 7197 km2
The highest point: Čupec (819 m.s.l.)
Total stations: 41
Stations online: 38
Stations offline: 3
Current weather
16°C

Meteorological map - weather stations in Jihomoravský

. The meteorological maps show weather information from WARIO weather stations

Weather stations Jihomoravský

 UpdatesNameStatusTemperatureHumidityWind speedWind direction
18.8.2018 02:33Boskovice15.2 °C68.0 %0.8 m/s N
18.8.2018 02:33Brno - Líšeň19.1 °C %0.0 m/s NE
18.8.2018 02:33Brno - Vinohrady16.2 °C71.8 %0.0 m/s NW
10.7.2018 08:51Brno - Komín18.9 °C60.3 %1.0 m/s N
18.8.2018 02:33Brno-Kníničky15.4 °C66.7 %0.6 m/s N
18.8.2018 02:33Býkovice16.0 °C69.1 %0.0 m/s S
18.8.2018 02:33Bítov14.3 °C82.0 %0.0 m/s NE
11.5.2018 07:55Diváky14.4 °C83.9 %0.0 m/s W
18.8.2018 02:33Drnholec16.9 °C61.7 %1.1 m/s N
18.8.2018 02:33Lelekovice14.9 °C70.4 %1.2 m/s N
18.8.2018 02:33Letonice15.6 °C66.2 %0.6 m/s N
18.8.2018 02:33Hodonín18.3 °C %0.0 m/s E
18.8.2018 02:33Brno14.5 °C72.2 %1.0 m/s E
18.8.2018 02:33Moravany13.0 °C88.4 %0.7 m/s SE
18.8.2018 02:33Pasohlávky18.1 °C64.4 %0.0 m/s E
18.8.2018 02:33Lesní Hluboké 19.2 °C54.6 %0.0 m/s NW
18.8.2018 02:33Vlasatice15.4 °C67.8 %0.1 m/s SW
18.8.2018 02:33Višňové18.8 °C55.8 %0.0 m/s W
18.8.2018 02:33Vranov18.6 °C57.4 %0.0 m/s NE
18.8.2018 02:33Dolní Dubňany14.1 °C76.5 %0.0 m/s W
18.8.2018 02:33Bzenec15.3 °C78.8 %0.0 m/s E
18.8.2018 02:33Svatobořice15.3 °C66.6 %0.0 m/s S
18.8.2018 02:33Moravské Bránice14.9 °C74.6 %0.0 m/s SE
18.8.2018 02:33Pohořelice14.6 °C74.9 %0.8 m/s SW
18.8.2018 02:33Brno - Jih17.5 °C57.3 %1.1 m/s S
18.8.2018 02:33Rousínov14.5 °C72.1 %0.7 m/s S
18.8.2018 02:33Senorady12.4 °C78.2 %0.0 m/s W
18.8.2018 02:34Šerkovice13.6 °C81.6 %0.0 m/s NW
18.8.2018 02:33Skalice u Znojma16.1 °C69.1 %0.0 m/s SE
18.8.2018 02:33Kuřim13.9 °C70.3 %0.9 m/s E
18.8.2018 02:33Strážnice16.4 °C88.7 %0.0 m/s NE
18.8.2018 02:33Strážnice GUMEX15.7 °C79.4 %1.3 m/s NW
18.8.2018 02:33Němčičky15.0 °C75.7 %0.0 m/s NW
18.8.2018 02:33Valtice18.3 °C62.7 %0.0 m/s NW
18.8.2018 02:33Velatice15.6 °C68.1 %0.0 m/s NE
18.8.2018 02:33Veselí nad Moravou LMK10913.7 °C86.9 %0.0 m/s W
18.8.2018 02:33Veselí nad Moravou16.1 °C76.8 %0.0 m/s W
6.6.2018 14:56Strachotín25.2 °C63.2 %3.2 m/s NE
18.8.2018 02:33Vrbovec15.7 °C64.4 %0.0 m/s NW
18.8.2018 02:33Terezín15.6 °C68.2 %0.0 m/s NW
18.8.2018 02:33Brno - Královo Pole16.4 °C100.0 %0.0 m/s W
Email notifications
Enter your email address to subscribe to notifications about news at warioweather.com. Your email address will not be used for any purpose other than sending these emails and will not be provided to any third party. The subscription can be ended at any time.
All data are only indicative. The portal administrator has no responsibility for potentially incorrect data and related consequences. Publishing or further sharing of content from www.warioweather.com is only allowed with written consent from WANET s.r.o.